Time,TemperatureF,DewpointF,PressureIn,WindDirection,WindDirectionDegrees,WindSpeedMPH,WindSpeedGustMPH,Humidity,HourlyPrecipIn,Conditions,Clouds,dailyrainin,SolarRadiationWatts/m^2,SoftwareType,DateUTC
2013-08-23 00:02:00,58.4,56.1,30.01,SE,134,2.3,2.3,92,0.00,RA,OVC,0.00,0.0,WeatherDisplay:10.37,2013-08-22 23:02:00,
2013-08-23 00:07:00,58.4,56.1,30.01,SE,143,3.5,3.5,92,0.00,RA,OVC,0.00,0.0,WeatherDisplay:10.37,2013-08-22 23:07:00,
2013-08-23 00:12:00,58.3,56.0,30.01,West,266,1.2,1.2,92,0.00,OVC,,0.00,0.0,WeatherDisplay:10.37,2013-08-22 23:12:00,
2013-08-23 00:17:00,58.2,55.9,30.01,ESE,123,1.2,1.2,92,0.00,OVC,,0.00,0.0,WeatherDisplay:10.37,2013-08-22 23:17:00,
2013-08-23 00:22:00,58.1,55.8,30.01,SSE,153,3.5,3.5,92,0.00,OVC,,0.00,0.0,WeatherDisplay:10.37,2013-08-22 23:22:00,
2013-08-23 00:27:00,58.0,56.0,30.01,SE,145,3.0,3.0,93,0.00,OVC,,0.00,0.0,WeatherDisplay:10.37,2013-08-22 23:27:00,
2013-08-23 00:32:00,57.9,55.9,30.01,SE,138,2.3,2.3,93,0.00,OVC,,0.00,0.0,WeatherDisplay:10.37,2013-08-22 23:32:00,
2013-08-23 00:37:00,57.9,55.9,30.01,SSE,149,1.2,1.2,93,0.00,OVC,,0.00,0.0,WeatherDisplay:10.37,2013-08-22 23:37:00,
2013-08-23 00:42:00,57.8,55.8,30.01,East,98,1.2,1.2,93,0.00,OVC,,0.00,0.0,WeatherDisplay:10.37,2013-08-22 23:42:00,
2013-08-23 00:47:00,57.8,55.8,30.01,SE,134,1.2,1.2,93,0.00,OVC,,0.00,0.0,WeatherDisplay:10.37,2013-08-22 23:47:00,
2013-08-23 00:52:00,57.9,55.9,30.01,ENE,70,0.0,0.3,93,0.00,OVC,,0.00,0.0,WeatherDisplay:10.37,2013-08-22 23:52:00,
2013-08-23 00:57:00,57.9,55.9,30.00,SE,126,2.0,2.0,93,0.00,OVC,,0.00,0.0,WeatherDisplay:10.37,2013-08-22 23:57:00,
2013-08-23 01:02:00,58.0,56.0,30.00,South,186,1.2,1.2,93,0.00,OVC,,0.00,0.0,WeatherDisplay:10.37,2013-08-23 00:02:00,
2013-08-23 01:07:00,58.0,56.0,30.00,WSW,242,2.3,2.3,93,0.00,OVC,,0.00,0.0,WeatherDisplay:10.37,2013-08-23 00:07:00,
2013-08-23 01:12:00,58.0,56.0,30.00,NNE,29,1.2,0.0,93,0.00,OVC,,0.00,0.0,WeatherDisplay:10.37,2013-08-23 00:12:00,
2013-08-23 01:17:00,58.0,56.0,30.00,West,281,1.2,1.2,93,0.00,OVC,,0.00,0.0,WeatherDisplay:10.37,2013-08-23 00:17:00,
2013-08-23 01:22:00,58.0,56.0,30.00,WNW,288,1.2,0.0,93,0.00,OVC,,0.00,0.0,WeatherDisplay:10.37,2013-08-23 00:22:00,
2013-08-23 01:27:00,58.1,56.1,30.00,SSE,151,2.3,2.3,93,0.00,OVC,,0.00,0.0,WeatherDisplay:10.37,2013-08-23 00:27:00,
2013-08-23 01:32:00,58.1,56.1,30.00,SE,137,2.3,2.3,93,0.00,OVC,,0.00,0.0,WeatherDisplay:10.37,2013-08-23 00:32:00,
2013-08-23 01:37:00,58.1,56.1,30.00,SW,219,2.3,2.3,93,0.00,OVC,,0.00,0.0,WeatherDisplay:10.37,2013-08-23 00:37:00,
2013-08-23 01:42:00,58.1,56.1,29.99,ESE,115,1.2,1.2,93,0.00,OVC,,0.00,0.0,WeatherDisplay:10.37,2013-08-23 00:42:00,
2013-08-23 01:48:00,58.1,55.8,29.99,ESE,120,3.5,3.5,92,0.00,OVC,,0.00,0.0,WeatherDisplay:10.37,2013-08-23 00:48:00,
2013-08-23 01:53:00,58.1,55.8,29.99,SE,131,3.5,3.5,92,0.00,OVC,,0.00,0.0,WeatherDisplay:10.37,2013-08-23 00:53:00,
2013-08-23 01:58:00,58.0,55.7,29.99,ESE,110,2.3,2.3,92,0.00,OVC,,0.00,0.0,WeatherDisplay:10.37,2013-08-23 00:58:00,
2013-08-23 02:03:00,58.0,55.7,29.99,SE,136,3.5,3.5,92,0.00,OVC,,0.00,0.0,WeatherDisplay:10.37,2013-08-23 01:03:00,
2013-08-23 02:08:00,57.9,55.6,30.00,NW,323,2.3,2.3,92,0.00,OVC,,0.00,0.0,WeatherDisplay:10.37,2013-08-23 01:08:00,
2013-08-23 02:13:00,57.8,55.8,29.99,ESE,103,1.2,1.2,93,0.00,OVC,,0.00,0.0,WeatherDisplay:10.37,2013-08-23 01:13:00,
2013-08-23 02:18:00,57.8,55.8,30.00,SSE,150,1.2,1.2,93,0.00,OVC,,0.00,0.0,WeatherDisplay:10.37,2013-08-23 01:18:00,
2013-08-23 02:23:00,57.7,55.7,29.99,ESE,113,1.2,1.2,93,0.00,OVC,,0.00,0.0,WeatherDisplay:10.37,2013-08-23 01:23:00,
2013-08-23 02:28:00,57.7,55.7,29.99,SE,136,2.3,2.3,93,0.00,OVC,,0.00,0.0,WeatherDisplay:10.37,2013-08-23 01:28:00,
2013-08-23 02:33:00,57.8,55.8,29.99,SSW,206,1.2,1.2,93,0.00,OVC,,0.00,0.0,WeatherDisplay:10.37,2013-08-23 01:33:00,
2013-08-23 02:38:00,57.8,55.8,29.99,NW,312,1.2,0.0,93,0.00,OVC,,0.00,0.0,WeatherDisplay:10.37,2013-08-23 01:38:00,
2013-08-23 02:43:00,57.8,55.8,29.99,West,280,1.2,0.0,93,0.00,OVC,,0.00,0.0,WeatherDisplay:10.37,2013-08-23 01:43:00,
2013-08-23 02:48:00,57.9,55.9,29.99,ESE,122,3.5,3.5,93,0.00,OVC,,0.00,0.0,WeatherDisplay:10.37,2013-08-23 01:48:00,
2013-08-23 02:53:00,57.9,55.6,29.99,West,280,2.3,2.3,92,0.00,OVC,,0.00,0.0,WeatherDisplay:10.37,2013-08-23 01:53:00,
2013-08-23 02:58:00,57.9,55.6,29.98,SE,138,1.2,1.2,92,0.00,OVC,,0.00,0.0,WeatherDisplay:10.37,2013-08-23 01:58:00,
2013-08-23 03:03:00,57.9,55.6,29.98,South,190,1.2,1.2,92,0.00,OVC,,0.00,0.0,WeatherDisplay:10.37,2013-08-23 02:03:00,
2013-08-23 03:08:00,57.8,55.5,29.98,WNW,288,1.2,1.2,92,0.00,OVC,,0.00,0.0,WeatherDisplay:10.37,2013-08-23 02:08:00,
2013-08-23 03:13:00,57.8,55.5,29.98,SSE,153,3.5,3.5,92,0.00,OVC,,0.00,0.0,WeatherDisplay:10.37,2013-08-23 02:13:00,
2013-08-23 03:18:00,57.8,55.5,29.98,SW,218,1.2,1.2,92,0.00,OVC,,0.00,0.0,WeatherDisplay:10.37,2013-08-23 02:18:00,
2013-08-23 03:23:00,57.8,55.5,29.98,SE,124,2.3,2.3,92,0.00,OVC,,0.00,0.0,WeatherDisplay:10.37,2013-08-23 02:23:00,
2013-08-23 03:28:00,57.7,55.4,29.97,West,276,2.0,2.0,92,0.00,OVC,,0.00,0.0,WeatherDisplay:10.37,2013-08-23 02:28:00,
2013-08-23 03:33:00,57.7,55.4,29.97,SSE,153,2.3,2.3,92,0.00,OVC,,0.00,0.0,WeatherDisplay:10.37,2013-08-23 02:33:00,
2013-08-23 03:38:00,57.6,55.3,29.97,SSW,208,1.2,1.2,92,0.00,OVC,,0.00,0.0,WeatherDisplay:10.37,2013-08-23 02:38:00,
2013-08-23 03:43:00,57.4,55.1,29.97,SE,136,2.3,2.3,92,0.00,OVC,,0.00,0.0,WeatherDisplay:10.37,2013-08-23 02:43:00,
2013-08-23 03:48:00,57.2,54.9,29.97,SE,139,1.2,0.0,92,0.00,OVC,,0.00,0.0,WeatherDisplay:10.37,2013-08-23 02:48:00,
2013-08-23 03:53:00,57.1,54.8,29.97,ESE,120,1.2,1.2,92,0.00,OVC,,0.00,0.0,WeatherDisplay:10.37,2013-08-23 02:53:00,
2013-08-23 03:58:00,57.0,54.7,29.96,SE,137,0.0,0.0,92,0.00,OVC,,0.00,0.0,WeatherDisplay:10.37,2013-08-23 02:58:00,
2013-08-23 04:03:00,57.0,55.0,29.96,SE,127,1.2,1.2,93,0.00,OVC,,0.00,0.0,WeatherDisplay:10.37,2013-08-23 03:03:00,
2013-08-23 04:08:00,57.1,55.1,29.96,SE,131,1.0,1.0,93,0.00,OVC,,0.00,0.0,WeatherDisplay:10.37,2013-08-23 03:08:00,
2013-08-23 04:13:00,57.2,55.2,29.96,ESE,123,2.3,2.3,93,0.00,OVC,,0.00,0.0,WeatherDisplay:10.37,2013-08-23 03:13:00,
2013-08-23 04:18:00,57.3,55.3,29.96,South,188,1.2,1.2,93,0.00,OVC,,0.00,0.0,WeatherDisplay:10.37,2013-08-23 03:18:00,
2013-08-23 04:23:00,57.4,55.4,29.96,SSE,153,1.2,0.0,93,0.00,OVC,,0.00,0.0,WeatherDisplay:10.37,2013-08-23 03:23:00,
2013-08-23 04:28:00,57.4,55.4,29.96,ESE,115,0.0,0.0,93,0.00,OVC,,0.00,0.0,WeatherDisplay:10.37,2013-08-23 03:28:00,
2013-08-23 04:33:00,57.4,55.1,29.96,SE,142,1.2,1.2,92,0.00,OVC,,0.00,0.0,WeatherDisplay:10.37,2013-08-23 03:33:00,
2013-08-23 04:38:00,57.4,55.4,29.96,SE,127,1.2,0.0,93,0.00,OVC,,0.00,0.0,WeatherDisplay:10.37,2013-08-23 03:38:00,
2013-08-23 04:43:00,57.4,55.4,29.95,ESE,121,1.2,1.2,93,0.00,OVC,,0.00,0.0,WeatherDisplay:10.37,2013-08-23 03:43:00,
2013-08-23 04:48:00,57.4,55.4,29.95,SE,129,1.2,1.2,93,0.00,BKN,OVC,0.00,0.0,WeatherDisplay:10.37,2013-08-23 03:48:00,
2013-08-23 04:53:00,57.4,55.4,29.95,South,188,0.0,0.0,93,0.00,BKN,OVC,0.00,0.0,WeatherDisplay:10.37,2013-08-23 03:53:00,
2013-08-23 04:58:00,57.5,55.5,29.95,ESE,118,2.3,2.3,93,0.00,BKN,OVC,0.00,0.0,WeatherDisplay:10.37,2013-08-23 03:58:00,
2013-08-23 05:01:00,57.6,55.6,29.95,SE,134,1.2,1.2,93,0.00,BKN,OVC,0.00,0.0,WeatherDisplay:10.37,2013-08-23 04:01:00,
2013-08-23 05:06:00,57.6,55.6,29.95,ESE,116,0.0,0.0,93,0.00,BKN,OVC,0.00,0.0,WeatherDisplay:10.37,2013-08-23 04:06:00,
2013-08-23 05:11:00,57.6,55.6,29.95,ESE,116,0.0,0.0,93,0.00,BKN,OVC,0.00,0.0,WeatherDisplay:10.37,2013-08-23 04:11:00,
2013-08-23 05:16:00,57.7,55.4,29.95,ESE,116,0.0,0.0,92,0.00,BKN,OVC,0.00,0.0,WeatherDisplay:10.37,2013-08-23 04:16:00,
2013-08-23 05:21:00,57.7,55.4,29.95,ESE,116,0.0,0.0,92,0.00,BKN,OVC,0.00,0.0,WeatherDisplay:10.37,2013-08-23 04:21:00,
2013-08-23 05:26:00,57.7,55.4,29.95,SSE,150,0.0,0.0,92,0.00,BKN,OVC,0.00,0.0,WeatherDisplay:10.37,2013-08-23 04:26:00,
2013-08-23 05:31:00,57.6,55.3,29.95,SE,130,1.2,1.2,92,0.00,BKN,OVC,0.00,0.0,WeatherDisplay:10.37,2013-08-23 04:31:00,
2013-08-23 05:36:00,57.6,55.3,29.95,SE,134,1.2,0.0,92,0.00,BKN,OVC,0.00,0.0,WeatherDisplay:10.37,2013-08-23 04:36:00,
2013-08-23 05:41:00,57.5,55.2,29.95,SE,131,0.0,0.0,92,0.00,BKN,OVC,0.00,0.0,WeatherDisplay:10.37,2013-08-23 04:41:00,
2013-08-23 05:46:00,57.5,55.2,29.94,South,179,0.0,0.0,92,0.00,BKN,OVC,0.00,0.0,WeatherDisplay:10.37,2013-08-23 04:46:00,
2013-08-23 05:51:00,57.5,55.2,29.95,South,179,0.0,0.0,92,0.00,BKN,OVC,0.00,0.0,WeatherDisplay:10.37,2013-08-23 04:51:00,
2013-08-23 05:56:00,57.5,55.2,29.95,South,179,0.0,0.0,92,0.00,BKN,OVC,0.00,0.0,WeatherDisplay:10.37,2013-08-23 04:56:00,
2013-08-23 06:01:00,57.5,55.2,29.95,SSE,150,0.0,0.0,92,0.00,OVC,,0.00,0.0,WeatherDisplay:10.37,2013-08-23 05:01:00,
2013-08-23 06:06:00,57.5,55.2,29.95,ESE,120,0.0,0.0,92,0.00,OVC,,0.00,0.0,WeatherDisplay:10.37,2013-08-23 05:06:00,
2013-08-23 06:11:00,57.5,55.5,29.95,ESE,120,0.0,0.0,93,0.00,OVC,,0.00,0.0,WeatherDisplay:10.37,2013-08-23 05:11:00,
2013-08-23 06:16:00,57.5,55.2,29.94,ESE,120,0.0,0.0,92,0.00,OVC,,0.00,0.0,WeatherDisplay:10.37,2013-08-23 05:16:00,
2013-08-23 06:21:00,57.5,55.2,29.95,ESE,120,0.0,0.0,92,0.00,OVC,,0.00,0.0,WeatherDisplay:10.37,2013-08-23 05:21:00,
2013-08-23 06:26:00,57.4,55.1,29.95,ESE,120,0.0,0.0,92,0.00,OVC,,0.00,0.0,WeatherDisplay:10.37,2013-08-23 05:26:00,
2013-08-23 06:31:00,57.2,54.9,29.95,ESE,120,0.0,0.0,92,0.00,OVC,,0.00,0.0,WeatherDisplay:10.37,2013-08-23 05:31:00,
2013-08-23 06:36:00,57.0,54.7,29.95,ESE,120,0.0,0.0,92,0.00,OVC,,0.00,0.0,WeatherDisplay:10.37,2013-08-23 05:36:00,
2013-08-23 06:41:00,57.0,54.7,29.95,ESE,120,0.0,0.0,92,0.00,OVC,,0.00,0.0,WeatherDisplay:10.37,2013-08-23 05:41:00,
2013-08-23 06:46:00,57.1,55.1,29.95,ESE,120,0.0,0.0,93,0.00,OVC,,0.00,0.0,WeatherDisplay:10.37,2013-08-23 05:46:00,
2013-08-23 06:51:00,57.2,55.2,29.95,SE,139,0.0,0.3,93,0.00,OVC,,0.00,0.0,WeatherDisplay:10.37,2013-08-23 05:51:00,
2013-08-23 06:56:00,57.3,55.3,29.95,SSE,153,0.0,0.0,93,0.00,OVC,,0.00,0.0,WeatherDisplay:10.37,2013-08-23 05:56:00,
2013-08-23 07:02:00,57.4,55.4,29.94,SSE,153,0.0,0.0,93,0.00,OVC,,0.00,0.0,WeatherDisplay:10.37,2013-08-23 06:02:00,
2013-08-23 07:07:00,57.5,55.5,29.94,ESE,105,1.2,1.2,93,0.00,OVC,,0.00,0.0,WeatherDisplay:10.37,2013-08-23 06:07:00,
2013-08-23 07:12:00,57.7,55.7,29.94,ESE,123,1.2,0.0,93,0.00,OVC,,0.00,0.0,WeatherDisplay:10.37,2013-08-23 06:12:00,
2013-08-23 07:17:00,57.8,55.8,29.94,SE,143,1.2,1.2,93,0.00,OVC,,0.00,0.0,WeatherDisplay:10.37,2013-08-23 06:17:00,
2013-08-23 07:22:00,58.0,56.0,29.94,SE,134,0.0,0.0,93,0.00,OVC,,0.00,0.0,WeatherDisplay:10.37,2013-08-23 06:22:00,
2013-08-23 07:27:00,58.1,56.1,29.94,SE,135,0.0,0.1,93,0.00,OVC,,0.00,0.0,WeatherDisplay:10.37,2013-08-23 06:27:00,
2013-08-23 07:32:00,58.3,56.3,29.94,SSE,165,0.0,0.0,93,0.00,OVC,,0.00,0.0,WeatherDisplay:10.37,2013-08-23 06:32:00,
2013-08-23 07:37:00,58.4,56.4,29.94,SSE,167,0.0,0.0,93,0.00,OVC,,0.00,0.0,WeatherDisplay:10.37,2013-08-23 06:37:00,
2013-08-23 07:42:00,58.7,56.7,29.94,SSE,167,0.0,0.0,93,0.00,OVC,,0.00,0.0,WeatherDisplay:10.37,2013-08-23 06:42:00,
2013-08-23 07:47:00,58.8,56.5,29.94,SW,214,0.0,0.1,92,0.00,OVC,,0.00,0.0,WeatherDisplay:10.37,2013-08-23 06:47:00,
2013-08-23 07:52:00,59.0,56.7,29.94,SSW,193,0.0,0.0,92,0.00,OVC,,0.00,0.0,WeatherDisplay:10.37,2013-08-23 06:52:00,
2013-08-23 07:57:00,59.1,56.8,29.93,SE,127,1.2,0.0,92,0.00,OVC,,0.00,0.0,WeatherDisplay:10.37,2013-08-23 06:57:00,
2013-08-23 08:02:00,59.4,57.1,29.93,SE,130,1.2,0.0,92,0.00,BKN,OVC,0.00,0.0,WeatherDisplay:10.37,2013-08-23 07:02:00,
2013-08-23 08:07:00,59.6,57.0,29.93,SE,134,0.0,0.2,91,0.00,BKN,OVC,0.00,0.0,WeatherDisplay:10.37,2013-08-23 07:07:00,
2013-08-23 08:12:00,60.0,57.4,29.93,West,273,1.2,0.0,91,0.00,BKN,OVC,0.00,0.0,WeatherDisplay:10.37,2013-08-23 07:12:00,
2013-08-23 08:17:00,60.2,57.6,29.94,WSW,253,1.2,0.0,91,0.00,BKN,OVC,0.00,0.0,WeatherDisplay:10.37,2013-08-23 07:17:00,
2013-08-23 08:22:00,60.4,57.5,29.94,West,281,0.0,0.0,90,0.00,BKN,OVC,0.00,0.0,WeatherDisplay:10.37,2013-08-23 07:22:00,
2013-08-23 08:27:00,60.7,57.4,29.93,WNW,286,1.2,1.3,89,0.00,BKN,OVC,0.00,0.0,WeatherDisplay:10.37,2013-08-23 07:27:00,
2013-08-23 08:32:00,60.9,57.6,29.93,SSE,162,0.0,0.0,89,0.00,OVC,,0.00,0.0,WeatherDisplay:10.37,2013-08-23 07:32:00,
2013-08-23 08:37:00,61.2,57.9,29.93,ESE,122,0.0,0.2,89,0.00,OVC,,0.00,0.0,WeatherDisplay:10.37,2013-08-23 07:37:00,
2013-08-23 08:42:00,61.4,58.1,29.93,SE,136,1.2,1.2,89,0.00,OVC,,0.00,0.0,WeatherDisplay:10.37,2013-08-23 07:42:00,
2013-08-23 08:47:00,61.6,58.3,29.93,SE,146,0.0,0.0,89,0.00,OVC,,0.00,0.0,WeatherDisplay:10.37,2013-08-23 07:47:00,
2013-08-23 08:52:00,61.9,58.3,29.93,WSW,238,0.0,0.0,88,0.00,OVC,,0.00,0.0,WeatherDisplay:10.37,2013-08-23 07:52:00,
2013-08-23 08:57:00,62.1,58.5,29.93,WSW,239,0.0,0.0,88,0.00,OVC,,0.00,0.0,WeatherDisplay:10.37,2013-08-23 07:57:00,
2013-08-23 09:02:00,62.4,58.8,29.93,SE,134,0.0,0.0,88,0.00,SCT,OVC,0.00,0.0,WeatherDisplay:10.37,2013-08-23 08:02:00,
2013-08-23 09:07:00,62.6,58.4,29.93,West,276,0.0,0.3,86,0.00,SCT,OVC,0.00,0.0,WeatherDisplay:10.37,2013-08-23 08:07:00,
2013-08-23 09:12:00,62.6,58.4,29.93,SE,135,1.2,1.2,86,0.00,SCT,OVC,0.00,0.0,WeatherDisplay:10.37,2013-08-23 08:12:00,
2013-08-23 09:17:00,62.6,58.4,29.93,SE,135,1.2,1.2,86,0.00,SCT,OVC,0.00,0.0,WeatherDisplay:10.37,2013-08-23 08:17:00,
2013-08-23 09:22:00,62.5,58.3,29.94,SSE,160,1.2,1.2,86,0.00,SCT,OVC,0.00,0.0,WeatherDisplay:10.37,2013-08-23 08:22:00,
2013-08-23 09:27:00,62.6,58.4,29.94,SSE,159,0.0,0.0,86,0.00,SCT,OVC,0.00,0.0,WeatherDisplay:10.37,2013-08-23 08:27:00,
2013-08-23 09:32:00,62.7,58.5,29.93,ESE,115,0.0,0.0,86,0.00,SCT,OVC,0.00,0.0,WeatherDisplay:10.37,2013-08-23 08:32:00,
2013-08-23 09:37:00,62.7,58.5,29.93,WSW,257,0.0,0.0,86,0.00,SCT,OVC,0.00,0.0,WeatherDisplay:10.37,2013-08-23 08:37:00,
2013-08-23 09:42:00,62.8,58.5,29.93,WNW,285,0.0,0.0,86,0.00,SCT,OVC,0.00,0.0,WeatherDisplay:10.37,2013-08-23 08:42:00,
2013-08-23 09:47:00,62.9,58.6,29.93,SE,145,1.0,1.0,86,0.00,FEW,OVC,0.00,0.0,WeatherDisplay:10.37,2013-08-23 08:47:00,
2013-08-23 09:52:00,62.8,58.5,29.93,SE,140,1.2,1.2,86,0.00,FEW,OVC,0.00,0.0,WeatherDisplay:10.37,2013-08-23 08:52:00,
2013-08-23 09:57:00,62.8,58.5,29.93,South,179,0.0,0.0,86,0.00,FEW,OVC,0.00,0.0,WeatherDisplay:10.37,2013-08-23 08:57:00,
2013-08-23 10:02:00,62.8,58.5,29.92,SW,221,0.0,0.0,86,0.00,FEW,OVC,0.00,0.0,WeatherDisplay:10.37,2013-08-23 09:02:00,
2013-08-23 10:07:00,62.9,58.6,29.92,WSW,240,1.2,0.0,86,0.00,FEW,OVC,0.00,0.0,WeatherDisplay:10.37,2013-08-23 09:07:00,
2013-08-23 10:12:00,62.9,58.6,29.92,WSW,246,3.5,3.5,86,0.00,FEW,OVC,0.00,0.0,WeatherDisplay:10.37,2013-08-23 09:12:00,
2013-08-23 10:17:00,63.1,58.8,29.92,WSW,250,0.0,0.0,86,0.00,FEW,OVC,0.00,0.0,WeatherDisplay:10.37,2013-08-23 09:17:00,
2013-08-23 10:22:00,63.4,59.1,29.92,SSW,194,1.2,1.2,86,0.00,FEW,OVC,0.00,0.0,WeatherDisplay:10.37,2013-08-23 09:22:00,
2013-08-23 10:27:00,63.7,59.1,29.92,South,190,1.2,1.2,85,0.00,FEW,OVC,0.00,0.0,WeatherDisplay:10.37,2013-08-23 09:27:00,
2013-08-23 10:32:00,64.2,59.6,29.92,ESE,122,1.2,1.2,85,0.00,FEW,OVC,0.00,0.0,WeatherDisplay:10.37,2013-08-23 09:32:00,
2013-08-23 10:37:00,64.7,60.1,29.92,ESE,108,0.0,0.0,85,0.00,FEW,OVC,0.00,0.0,WeatherDisplay:10.37,2013-08-23 09:37:00,
2013-08-23 10:42:00,65.1,59.8,29.92,ESE,122,2.3,2.3,83,0.00,FEW,OVC,0.00,0.0,WeatherDisplay:10.37,2013-08-23 09:42:00,
2013-08-23 10:47:00,65.3,60.0,29.92,SE,124,1.2,1.2,83,0.00,FEW,OVC,0.00,0.0,WeatherDisplay:10.37,2013-08-23 09:47:00,
2013-08-23 10:52:00,65.6,60.3,29.92,SSE,153,1.2,0.0,83,0.00,FEW,OVC,0.00,0.0,WeatherDisplay:10.37,2013-08-23 09:52:00,
2013-08-23 10:57:00,65.7,60.1,29.91,SE,129,1.2,1.2,82,0.00,FEW,OVC,0.00,0.0,WeatherDisplay:10.37,2013-08-23 09:57:00,
2013-08-23 11:02:00,65.8,60.5,29.91,NW,318,0.0,0.0,83,0.00,FEW,OVC,0.00,0.0,WeatherDisplay:10.37,2013-08-23 10:02:00,
2013-08-23 11:07:00,65.8,60.5,29.91,WSW,255,1.2,0.0,83,0.00,FEW,OVC,0.00,0.0,WeatherDisplay:10.37,2013-08-23 10:07:00,
2013-08-23 11:12:00,66.0,60.3,29.91,SE,131,1.2,1.2,82,0.00,FEW,OVC,0.00,0.0,WeatherDisplay:10.37,2013-08-23 10:12:00,
2013-08-23 11:17:00,66.0,60.3,29.91,WSW,245,1.2,0.0,82,0.00,FEW,OVC,0.00,0.0,WeatherDisplay:10.37,2013-08-23 10:17:00,
2013-08-23 11:22:00,66.3,60.6,29.90,NNW,339,1.2,0.0,82,0.00,FEW,OVC,0.00,0.0,WeatherDisplay:10.37,2013-08-23 10:22:00,
2013-08-23 11:27:00,66.4,60.4,29.90,NW,307,2.3,2.3,81,0.00,FEW,OVC,0.00,0.0,WeatherDisplay:10.37,2013-08-23 10:27:00,
2013-08-23 11:32:00,66.5,60.8,29.90,East,101,0.0,0.0,82,0.00,FEW,OVC,0.00,0.0,WeatherDisplay:10.37,2013-08-23 10:32:00,
2013-08-23 11:37:00,66.5,60.8,29.91,WSW,252,1.2,1.2,82,0.00,FEW,OVC,0.00,0.0,WeatherDisplay:10.37,2013-08-23 10:37:00,
2013-08-23 11:42:00,66.6,60.9,29.91,SW,233,0.0,0.0,82,0.00,FEW,OVC,0.00,0.0,WeatherDisplay:10.37,2013-08-23 10:42:00,
2013-08-23 11:47:00,66.6,60.6,29.91,SE,141,1.2,1.2,81,0.00,FEW,OVC,0.00,0.0,WeatherDisplay:10.37,2013-08-23 10:47:00,
2013-08-23 11:52:00,66.6,60.9,29.91,WSW,255,0.0,0.0,82,0.00,FEW,OVC,0.00,0.0,WeatherDisplay:10.37,2013-08-23 10:52:00,
2013-08-23 11:57:00,66.7,61.0,29.91,SE,136,0.0,0.0,82,0.00,FEW,OVC,0.00,0.0,WeatherDisplay:10.37,2013-08-23 10:57:00,
2013-08-23 12:02:00,66.7,61.0,29.91,SE,127,1.0,0.0,82,0.00,FEW,OVC,0.00,0.0,WeatherDisplay:10.37,2013-08-23 11:02:00,
2013-08-23 12:07:00,66.6,60.9,29.91,SW,228,0.0,0.0,82,0.00,FEW,OVC,0.00,0.0,WeatherDisplay:10.37,2013-08-23 11:07:00,
2013-08-23 12:12:00,66.5,60.8,29.91,ESE,105,0.0,0.0,82,0.00,FEW,OVC,0.00,0.0,WeatherDisplay:10.37,2013-08-23 11:12:00,
2013-08-23 12:17:00,66.4,60.7,29.91,ESE,113,1.2,1.2,82,0.00,FEW,OVC,0.00,0.0,WeatherDisplay:10.37,2013-08-23 11:17:00,
2013-08-23 12:22:00,66.2,60.9,29.91,SSE,150,1.2,0.0,83,0.00,FEW,OVC,0.00,0.0,WeatherDisplay:10.37,2013-08-23 11:22:00,
2013-08-23 12:27:00,66.4,61.4,29.90,SSE,150,0.0,0.0,84,0.00,FEW,OVC,0.00,0.0,WeatherDisplay:10.37,2013-08-23 11:27:00,
2013-08-23 12:32:00,66.6,61.6,29.91,SE,135,0.0,0.0,84,0.00,FEW,OVC,0.00,0.0,WeatherDisplay:10.37,2013-08-23 11:32:00,
2013-08-23 12:37:00,66.6,61.3,29.90,SE,141,1.2,1.2,83,0.00,FEW,OVC,0.00,0.0,WeatherDisplay:10.37,2013-08-23 11:37:00,
2013-08-23 12:42:00,66.6,61.6,29.90,ESE,122,1.2,0.0,84,0.00,FEW,OVC,0.00,0.0,WeatherDisplay:10.37,2013-08-23 11:42:00,
2013-08-23 12:47:00,66.8,61.5,29.90,SW,235,1.2,0.0,83,0.00,FEW,OVC,0.00,0.0,WeatherDisplay:10.37,2013-08-23 11:47:00,
2013-08-23 12:52:00,67.0,61.7,29.91,SE,127,0.0,0.0,83,0.00,FEW,OVC,0.00,0.0,WeatherDisplay:10.37,2013-08-23 11:52:00,
2013-08-23 12:57:00,67.1,61.8,29.91,WSW,257,0.0,0.0,83,0.00,FEW,OVC,0.00,0.0,WeatherDisplay:10.37,2013-08-23 11:57:00,
2013-08-23 13:02:00,67.2,61.5,29.91,WSW,252,0.0,0.0,82,0.00,FEW,OVC,0.00,0.0,WeatherDisplay:10.37,2013-08-23 12:02:00,
2013-08-23 13:07:00,67.3,62.0,29.90,WSW,246,1.2,0.0,83,0.00,FEW,OVC,0.00,0.0,WeatherDisplay:10.37,2013-08-23 12:07:00,
2013-08-23 13:12:00,67.5,62.5,29.90,SW,235,0.0,0.0,84,0.00,FEW,OVC,0.00,0.0,WeatherDisplay:10.37,2013-08-23 12:12:00,
2013-08-23 13:17:00,67.7,62.0,29.90,WSW,255,1.2,0.0,82,0.00,FEW,OVC,0.00,0.0,WeatherDisplay:10.37,2013-08-23 12:17:00,
2013-08-23 13:22:00,67.7,62.3,29.90,SE,139,0.0,0.0,83,0.00,FEW,OVC,0.00,0.0,WeatherDisplay:10.37,2013-08-23 12:22:00,
2013-08-23 13:27:00,67.7,62.0,29.90,West,259,0.0,0.0,82,0.00,FEW,OVC,0.00,0.0,WeatherDisplay:10.37,2013-08-23 12:27:00,
2013-08-23 13:32:00,67.8,62.4,29.90,WSW,249,1.0,0.0,83,0.00,SCT,OVC,0.00,0.0,WeatherDisplay:10.37,2013-08-23 12:32:00,
2013-08-23 13:37:00,68.0,62.6,29.90,South,190,0.0,0.0,83,0.00,SCT,OVC,0.00,0.0,WeatherDisplay:10.37,2013-08-23 12:37:00,
2013-08-23 13:42:00,68.1,62.7,29.90,SE,143,0.0,0.0,83,0.00,SCT,OVC,0.00,0.0,WeatherDisplay:10.37,2013-08-23 12:42:00,
2013-08-23 13:47:00,68.0,61.9,29.90,ESE,120,0.0,0.0,81,0.00,SCT,OVC,0.00,0.0,WeatherDisplay:10.37,2013-08-23 12:47:00,
2013-08-23 13:52:00,67.9,62.2,29.90,SE,139,0.0,0.0,82,0.00,SCT,OVC,0.00,0.0,WeatherDisplay:10.37,2013-08-23 12:52:00,
2013-08-23 13:57:00,67.7,62.0,29.90,ESE,117,1.2,0.0,82,0.00,SCT,OVC,0.00,0.0,WeatherDisplay:10.37,2013-08-23 12:57:00,
2013-08-23 14:02:00,67.7,62.3,29.90,ESE,117,0.0,0.0,83,0.00,BKN,OVC,0.00,0.0,WeatherDisplay:10.37,2013-08-23 13:02:00,
2013-08-23 14:07:00,67.6,61.9,29.90,ESE,117,0.0,0.0,82,0.00,BKN,OVC,0.00,0.0,WeatherDisplay:10.37,2013-08-23 13:07:00,
2013-08-23 14:12:00,67.5,62.2,29.90,ESE,117,0.0,0.0,83,0.00,BKN,OVC,0.00,0.0,WeatherDisplay:10.37,2013-08-23 13:12:00,
2013-08-23 14:17:00,67.5,62.5,29.90,ESE,117,0.0,0.1,84,0.00,BKN,OVC,0.00,0.0,WeatherDisplay:10.37,2013-08-23 13:17:00,
2013-08-23 14:23:00,67.4,62.4,29.90,ESE,117,0.0,0.0,84,0.00,BKN,OVC,0.00,0.0,WeatherDisplay:10.37,2013-08-23 13:23:00,
2013-08-23 14:28:00,67.3,62.3,29.90,ESE,117,0.0,0.0,84,0.00,BKN,OVC,0.00,0.0,WeatherDisplay:10.37,2013-08-23 13:28:00,
2013-08-23 14:33:00,67.2,62.2,29.89,ESE,117,0.0,0.0,84,0.00,BKN,OVC,0.00,0.0,WeatherDisplay:10.37,2013-08-23 13:33:00,
2013-08-23 14:38:00,67.0,62.0,29.89,ESE,117,0.0,0.0,84,0.00,BKN,OVC,0.00,0.0,WeatherDisplay:10.37,2013-08-23 13:38:00,
2013-08-23 14:43:00,67.0,62.3,29.89,ESE,117,0.0,0.0,85,0.00,BKN,OVC,0.00,0.0,WeatherDisplay:10.37,2013-08-23 13:43:00,
2013-08-23 14:48:00,66.9,62.2,29.89,ESE,118,0.0,0.0,85,0.00,BKN,OVC,0.00,0.0,WeatherDisplay:10.37,2013-08-23 13:48:00,
2013-08-23 14:53:00,67.0,62.7,29.89,ESE,118,0.0,0.0,86,0.00,BKN,OVC,0.00,0.0,WeatherDisplay:10.37,2013-08-23 13:53:00,
2013-08-23 14:58:00,66.9,62.2,29.89,ESE,118,0.0,0.0,85,0.00,BKN,OVC,0.00,0.0,WeatherDisplay:10.37,2013-08-23 13:58:00,
2013-08-23 15:03:00,66.7,61.7,29.89,ESE,118,0.0,0.0,84,0.00,BKN,OVC,0.00,0.0,WeatherDisplay:10.37,2013-08-23 14:03:00,
2013-08-23 15:08:00,66.8,61.5,29.89,ESE,117,0.0,0.0,83,0.00,BKN,OVC,0.00,0.0,WeatherDisplay:10.37,2013-08-23 14:08:00,
2013-08-23 15:13:00,67.2,61.5,29.89,ESE,117,0.0,0.0,82,0.00,BKN,OVC,0.00,0.0,WeatherDisplay:10.37,2013-08-23 14:13:00,
2013-08-23 15:18:00,67.7,62.0,29.89,West,281,0.0,0.0,82,0.00,BKN,OVC,0.00,0.0,WeatherDisplay:10.37,2013-08-23 14:18:00,
2013-08-23 15:23:00,68.2,61.4,29.88,SE,126,1.2,1.2,79,0.00,BKN,OVC,0.00,0.0,WeatherDisplay:10.37,2013-08-23 14:23:00,
2013-08-23 15:28:00,68.6,61.8,29.88,SE,126,0.0,0.0,79,0.00,BKN,OVC,0.00,0.0,WeatherDisplay:10.37,2013-08-23 14:28:00,
2013-08-23 15:33:00,69.2,62.4,29.88,NNE,13,0.0,0.0,79,0.00,BKN,OVC,0.00,0.0,WeatherDisplay:10.37,2013-08-23 14:33:00,
2013-08-23 15:38:00,69.3,61.8,29.88,SE,136,1.2,0.0,77,0.00,BKN,OVC,0.00,0.0,WeatherDisplay:10.37,2013-08-23 14:38:00,
2013-08-23 15:43:00,69.6,62.1,29.88,SE,136,0.0,0.0,77,0.00,BKN,OVC,0.00,0.0,WeatherDisplay:10.37,2013-08-23 14:43:00,
2013-08-23 15:48:00,70.0,62.1,29.88,SE,136,0.0,0.0,76,0.00,BKN,OVC,0.00,0.0,WeatherDisplay:10.37,2013-08-23 14:48:00,
2013-08-23 15:53:00,70.5,62.6,29.88,SE,136,0.0,0.0,76,0.00,BKN,OVC,0.00,0.0,WeatherDisplay:10.37,2013-08-23 14:53:00,
2013-08-23 15:58:00,70.3,62.0,29.88,SE,124,1.2,0.0,75,0.00,BKN,OVC,0.00,0.0,WeatherDisplay:10.37,2013-08-23 14:58:00,
2013-08-23 16:03:00,70.4,62.8,29.87,SE,124,0.0,0.0,77,0.00,OVC,,0.00,0.0,WeatherDisplay:10.37,2013-08-23 15:03:00,
2013-08-23 16:08:00,70.2,62.3,29.88,SE,127,1.2,0.0,76,0.00,OVC,,0.00,0.0,WeatherDisplay:10.37,2013-08-23 15:08:00,
2013-08-23 16:13:00,70.1,62.2,29.87,SSE,155,0.0,0.0,76,0.00,OVC,,0.00,0.0,WeatherDisplay:10.37,2013-08-23 15:13:00,
2013-08-23 16:18:00,69.9,62.4,29.87,SE,141,0.0,0.0,77,0.00,OVC,,0.00,0.0,WeatherDisplay:10.37,2013-08-23 15:18:00,
2013-08-23 16:23:00,69.7,62.2,29.87,SE,128,1.2,1.2,77,0.00,OVC,,0.00,0.0,WeatherDisplay:10.37,2013-08-23 15:23:00,
2013-08-23 16:28:00,69.4,62.6,29.87,SE,127,0.0,0.0,79,0.00,OVC,,0.00,0.0,WeatherDisplay:10.37,2013-08-23 15:28:00,
2013-08-23 16:33:00,69.2,62.0,29.87,ESE,122,1.2,1.2,78,0.00,OVC,,0.00,0.0,WeatherDisplay:10.37,2013-08-23 15:33:00,
2013-08-23 16:38:00,69.1,61.6,29.87,South,177,3.5,3.5,77,0.00,OVC,,0.00,0.0,WeatherDisplay:10.37,2013-08-23 15:38:00,
2013-08-23 16:43:00,68.9,62.1,29.87,SW,217,1.2,1.2,79,0.00,OVC,,0.00,0.0,WeatherDisplay:10.37,2013-08-23 15:43:00,
2013-08-23 16:48:00,68.7,61.9,29.88,ESE,112,0.0,0.0,79,0.00,OVC,,0.00,0.0,WeatherDisplay:10.37,2013-08-23 15:48:00,
2013-08-23 16:53:00,68.4,61.3,29.88,ESE,114,2.3,2.3,78,0.00,OVC,,0.00,0.0,WeatherDisplay:10.37,2013-08-23 15:53:00,
2013-08-23 16:58:00,68.4,61.6,29.87,SE,135,1.2,1.2,79,0.00,OVC,,0.00,0.0,WeatherDisplay:10.37,2013-08-23 15:58:00,
2013-08-23 17:03:00,68.2,61.1,29.87,NW,318,1.2,1.2,78,0.00,SCT,OVC,0.00,0.0,WeatherDisplay:10.37,2013-08-23 16:03:00,
2013-08-23 17:08:00,68.1,61.0,29.87,SE,126,3.5,3.5,78,0.00,SCT,OVC,0.00,0.0,WeatherDisplay:10.37,2013-08-23 16:08:00,
2013-08-23 17:13:00,67.9,61.1,29.87,ESE,116,0.0,0.0,79,0.00,SCT,OVC,0.00,0.0,WeatherDisplay:10.37,2013-08-23 16:13:00,
2013-08-23 17:18:00,67.7,61.0,29.87,ESE,105,1.2,1.2,79,0.00,SCT,OVC,0.00,0.0,WeatherDisplay:10.37,2013-08-23 16:18:00,
2013-08-23 17:23:00,67.7,61.3,29.87,ESE,122,2.3,2.3,80,0.00,SCT,OVC,0.00,0.0,WeatherDisplay:10.37,2013-08-23 16:23:00,
2013-08-23 17:28:00,67.7,61.3,29.87,SSE,155,1.2,1.2,80,0.00,SCT,OVC,0.00,0.0,WeatherDisplay:10.37,2013-08-23 16:28:00,
2013-08-23 17:33:00,67.6,60.9,29.87,ESE,117,4.0,4.0,79,0.00,SCT,OVC,0.00,0.0,WeatherDisplay:10.37,2013-08-23 16:33:00,
2013-08-23 17:38:00,67.6,60.1,29.87,ESE,105,5.0,5.0,77,0.00,SCT,OVC,0.00,0.0,WeatherDisplay:10.37,2013-08-23 16:38:00,
2013-08-23 17:43:00,67.5,60.0,29.87,ESE,120,2.3,2.3,77,0.00,SCT,OVC,0.00,0.0,WeatherDisplay:10.37,2013-08-23 16:43:00,
2013-08-23 17:48:00,67.5,60.0,29.87,SW,222,1.2,0.0,77,0.00,FEW,OVC,0.00,0.0,WeatherDisplay:10.37,2013-08-23 16:48:00,
2013-08-23 17:53:00,67.4,59.9,29.87,ENE,70,3.5,3.5,77,0.00,FEW,OVC,0.00,0.0,WeatherDisplay:10.37,2013-08-23 16:53:00,
2013-08-23 17:58:00,67.3,59.8,29.87,SSW,211,4.6,4.6,77,0.00,FEW,OVC,0.00,0.0,WeatherDisplay:10.37,2013-08-23 16:58:00,
2013-08-23 18:03:00,67.2,59.7,29.87,ESE,110,3.5,3.5,77,0.00,OVC,,0.00,0.0,WeatherDisplay:10.37,2013-08-23 17:03:00,
2013-08-23 18:08:00,67.0,59.9,29.87,SE,143,2.3,2.3,78,0.00,OVC,,0.00,0.0,WeatherDisplay:10.37,2013-08-23 17:08:00,
2013-08-23 18:13:00,66.7,60.3,29.87,ESE,119,2.3,2.3,80,0.00,OVC,,0.00,0.0,WeatherDisplay:10.37,2013-08-23 17:13:00,
2013-08-23 18:18:00,66.4,60.4,29.87,East,101,3.5,3.5,81,0.00,OVC,,0.00,0.0,WeatherDisplay:10.37,2013-08-23 17:18:00,
2013-08-23 18:23:00,66.1,60.1,29.87,East,98,2.3,2.3,81,0.00,OVC,,0.00,0.0,WeatherDisplay:10.37,2013-08-23 17:23:00,
2013-08-23 18:28:00,66.0,60.3,29.87,SE,143,3.5,3.5,82,0.00,OVC,,0.00,0.0,WeatherDisplay:10.37,2013-08-23 17:28:00,
2013-08-23 18:33:00,65.8,60.2,29.88,ESE,103,2.0,2.0,82,0.00,OVC,,0.00,0.0,WeatherDisplay:10.37,2013-08-23 17:33:00,
2013-08-23 18:38:00,65.7,60.1,29.88,ESE,113,1.2,1.2,82,0.00,OVC,,0.00,0.0,WeatherDisplay:10.37,2013-08-23 17:38:00,
2013-08-23 18:43:00,65.7,60.4,29.87,ESE,123,1.2,1.2,83,0.00,OVC,,0.00,0.0,WeatherDisplay:10.37,2013-08-23 17:43:00,
2013-08-23 18:48:00,65.6,60.0,29.88,SE,141,1.2,0.0,82,0.00,OVC,,0.00,0.0,WeatherDisplay:10.37,2013-08-23 17:48:00,
2013-08-23 18:53:00,65.6,60.0,29.87,East,98,1.2,1.2,82,0.00,OVC,,0.00,0.0,WeatherDisplay:10.37,2013-08-23 17:53:00,
2013-08-23 18:58:00,65.7,60.4,29.87,East,101,0.0,0.0,83,0.00,OVC,,0.00,0.0,WeatherDisplay:10.37,2013-08-23 17:58:00,
2013-08-23 19:03:00,65.7,60.4,29.88,East,101,1.2,0.0,83,0.00,OVC,,0.00,0.0,WeatherDisplay:10.37,2013-08-23 18:03:00,
2013-08-23 19:08:00,65.7,60.4,29.88,East,101,0.0,0.0,83,0.00,OVC,,0.00,0.0,WeatherDisplay:10.37,2013-08-23 18:08:00,
2013-08-23 19:13:00,65.6,60.3,29.88,East,100,0.0,0.0,83,0.00,OVC,,0.00,0.0,WeatherDisplay:10.37,2013-08-23 18:13:00,
2013-08-23 19:18:00,65.6,60.3,29.88,East,101,0.0,0.0,83,0.00,OVC,,0.00,0.0,WeatherDisplay:10.37,2013-08-23 18:18:00,
2013-08-23 19:23:00,65.5,60.2,29.88,East,101,0.0,0.0,83,0.00,OVC,,0.00,0.0,WeatherDisplay:10.37,2013-08-23 18:23:00,
2013-08-23 19:28:00,65.4,60.1,29.88,East,100,0.0,0.0,83,0.00,CLR,OVC,0.00,0.0,WeatherDisplay:10.37,2013-08-23 18:28:00,
2013-08-23 19:33:00,65.3,59.7,29.88,SSE,154,0.0,0.0,82,0.00,FEW,OVC,0.00,0.0,WeatherDisplay:10.37,2013-08-23 18:33:00,
2013-08-23 19:38:00,64.9,57.9,29.88,SE,130,1.2,0.0,78,0.00,FEW,OVC,0.00,0.0,WeatherDisplay:10.37,2013-08-23 18:38:00,
2013-08-23 19:43:00,64.5,56.8,29.88,SE,129,1.2,0.0,76,0.00,FEW,OVC,0.00,0.0,WeatherDisplay:10.37,2013-08-23 18:43:00,
2013-08-23 19:48:00,64.2,55.7,29.89,ESE,123,1.2,0.0,74,0.00,FEW,OVC,0.00,0.0,WeatherDisplay:10.37,2013-08-23 18:48:00,
2013-08-23 19:53:00,64.1,55.6,29.90,SE,135,0.0,0.0,74,0.00,FEW,OVC,0.00,0.0,WeatherDisplay:10.37,2013-08-23 18:53:00,
2013-08-23 19:58:00,63.9,55.8,29.89,SE,135,0.0,0.0,75,0.00,FEW,OVC,0.00,0.0,WeatherDisplay:10.37,2013-08-23 18:58:00,
2013-08-23 20:03:00,63.5,56.5,29.90,SE,135,0.0,0.0,78,0.00,CLR,OVC,0.00,0.0,WeatherDisplay:10.37,2013-08-23 19:03:00,
2013-08-23 20:08:00,63.1,56.8,29.90,SE,136,0.0,0.0,80,0.00,CLR,OVC,0.00,0.0,WeatherDisplay:10.37,2013-08-23 19:08:00,
2013-08-23 20:13:00,62.5,56.2,29.90,SE,136,0.0,0.0,80,0.00,CLR,OVC,0.00,0.0,WeatherDisplay:10.37,2013-08-23 19:13:00,
2013-08-23 20:18:00,62.2,56.6,29.90,SE,135,0.0,0.0,82,0.00,CLR,OVC,0.00,0.0,WeatherDisplay:10.37,2013-08-23 19:18:00,
2013-08-23 20:23:00,61.8,56.6,29.90,SE,135,0.0,0.0,83,0.00,CLR,OVC,0.00,0.0,WeatherDisplay:10.37,2013-08-23 19:23:00,
2013-08-23 20:28:00,61.4,56.5,29.90,SE,136,0.0,0.0,84,0.00,CLR,OVC,0.00,0.0,WeatherDisplay:10.37,2013-08-23 19:28:00,
2013-08-23 20:33:00,61.1,56.2,29.90,SE,135,0.0,0.0,84,0.00,CLR,OVC,0.00,0.0,WeatherDisplay:10.37,2013-08-23 19:33:00,
2013-08-23 20:38:00,60.8,55.6,29.90,SE,136,0.0,0.0,83,0.00,CLR,OVC,0.00,0.0,WeatherDisplay:10.37,2013-08-23 19:38:00,
2013-08-23 20:43:00,60.6,55.4,29.90,SE,135,0.0,0.0,83,0.00,CLR,OVC,0.00,0.0,WeatherDisplay:10.37,2013-08-23 19:43:00,
2013-08-23 20:48:00,60.3,55.1,29.90,SE,135,0.0,0.0,83,0.00,CLR,OVC,0.00,0.0,WeatherDisplay:10.37,2013-08-23 19:48:00,
2013-08-23 20:53:00,60.2,55.0,29.90,SE,135,0.0,0.0,83,0.00,CLR,OVC,0.00,0.0,WeatherDisplay:10.37,2013-08-23 19:53:00,
2013-08-23 20:58:00,60.1,55.2,29.90,SE,136,0.0,0.0,84,0.00,CLR,OVC,0.00,0.0,WeatherDisplay:10.37,2013-08-23 19:58:00,
2013-08-23 21:03:00,60.0,55.2,29.90,SE,135,0.0,0.0,84,0.00,CLR,OVC,0.00,0.0,WeatherDisplay:10.37,2013-08-23 20:03:00,
2013-08-23 21:08:00,59.9,54.4,29.90,SE,136,0.0,0.0,82,0.00,CLR,OVC,0.00,0.0,WeatherDisplay:10.37,2013-08-23 20:08:00,
2013-08-23 21:13:00,59.7,54.2,29.90,SE,135,0.0,0.0,82,0.00,CLR,OVC,0.00,0.0,WeatherDisplay:10.37,2013-08-23 20:13:00,
2013-08-23 21:18:00,59.6,54.4,29.90,SE,135,0.0,0.0,83,0.00,CLR,OVC,0.00,0.0,WeatherDisplay:10.37,2013-08-23 20:18:00,
2013-08-23 21:23:00,59.3,54.5,29.90,SE,136,0.0,0.0,84,0.00,CLR,OVC,0.00,0.0,WeatherDisplay:10.37,2013-08-23 20:23:00,
2013-08-23 21:28:00,59.1,54.3,29.90,SE,136,0.0,0.0,84,0.00,CLR,OVC,0.00,0.0,WeatherDisplay:10.37,2013-08-23 20:28:00,
2013-08-23 21:34:00,59.0,54.2,29.90,SE,136,0.0,0.0,84,0.00,CLR,OVC,0.00,0.0,WeatherDisplay:10.37,2013-08-23 20:34:00,
2013-08-23 21:39:00,58.8,54.3,29.90,SE,136,0.0,0.0,85,0.00,CLR,OVC,0.00,0.0,WeatherDisplay:10.37,2013-08-23 20:39:00,
2013-08-23 21:44:00,58.5,54.3,29.90,SE,135,0.0,0.0,86,0.00,CLR,OVC,0.00,0.0,WeatherDisplay:10.37,2013-08-23 20:44:00,
2013-08-23 21:49:00,58.3,54.1,29.90,SE,135,0.0,0.0,86,0.00,CLR,OVC,0.00,0.0,WeatherDisplay:10.37,2013-08-23 20:49:00,
2013-08-23 21:54:00,58.2,54.0,29.90,SE,135,0.0,0.0,86,0.00,CLR,OVC,0.00,0.0,WeatherDisplay:10.37,2013-08-23 20:54:00,
2013-08-23 21:59:00,58.0,53.8,29.90,SE,135,0.0,0.0,86,0.00,CLR,OVC,0.00,0.0,WeatherDisplay:10.37,2013-08-23 20:59:00,
2013-08-23 22:04:00,57.9,54.1,29.90,SE,135,0.0,0.0,87,0.00,CLR,OVC,0.00,0.0,WeatherDisplay:10.37,2013-08-23 21:04:00,
2013-08-23 22:09:00,57.8,54.0,29.90,SE,136,0.0,0.0,87,0.00,CLR,OVC,0.00,0.0,WeatherDisplay:10.37,2013-08-23 21:09:00,
2013-08-23 22:14:00,57.7,53.9,29.90,SE,135,0.0,0.0,87,0.00,CLR,OVC,0.00,0.0,WeatherDisplay:10.37,2013-08-23 21:14:00,
2013-08-23 22:19:00,57.5,54.0,29.90,SE,135,0.0,0.0,88,0.00,CLR,OVC,0.00,0.0,WeatherDisplay:10.37,2013-08-23 21:19:00,
2013-08-23 22:24:00,57.4,53.9,29.90,SE,135,0.0,0.0,88,0.00,CLR,OVC,0.00,0.0,WeatherDisplay:10.37,2013-08-23 21:24:00,
2013-08-23 22:29:00,57.3,54.1,29.90,SE,135,0.0,0.0,89,0.00,CLR,OVC,0.00,0.0,WeatherDisplay:10.37,2013-08-23 21:29:00,
2013-08-23 22:34:00,57.3,54.1,29.90,SE,135,0.0,0.0,89,0.00,CLR,OVC,0.00,0.0,WeatherDisplay:10.37,2013-08-23 21:34:00,
2013-08-23 22:39:00,57.3,53.8,29.91,ESE,113,0.0,0.1,88,0.00,CLR,OVC,0.00,0.0,WeatherDisplay:10.37,2013-08-23 21:39:00,
2013-08-23 22:44:00,57.4,53.6,29.91,ESE,113,0.0,0.0,87,0.00,CLR,OVC,0.00,0.0,WeatherDisplay:10.37,2013-08-23 21:44:00,
2013-08-23 22:49:00,57.6,53.8,29.91,ESE,113,0.0,0.0,87,0.00,CLR,OVC,0.00,0.0,WeatherDisplay:10.37,2013-08-23 21:49:00,
2013-08-23 22:54:00,57.7,53.9,29.91,ESE,113,0.0,0.0,87,0.00,CLR,OVC,0.00,0.0,WeatherDisplay:10.37,2013-08-23 21:54:00,
2013-08-23 22:59:00,57.8,54.0,29.91,ESE,113,1.2,0.0,87,0.00,CLR,OVC,0.00,0.0,WeatherDisplay:10.37,2013-08-23 21:59:00,
2013-08-23 23:04:00,57.9,53.7,29.91,ESE,113,0.0,0.0,86,0.00,CLR,OVC,0.00,0.0,WeatherDisplay:10.37,2013-08-23 22:04:00,
2013-08-23 23:09:00,58.0,53.8,29.90,ESE,113,0.0,0.0,86,0.00,CLR,OVC,0.00,0.0,WeatherDisplay:10.37,2013-08-23 22:09:00,
2013-08-23 23:14:00,58.1,54.2,29.90,ESE,113,0.0,0.0,87,0.00,CLR,OVC,0.00,0.0,WeatherDisplay:10.37,2013-08-23 22:14:00,
2013-08-23 23:19:00,58.2,54.3,29.90,ESE,113,0.0,0.0,87,0.00,CLR,OVC,0.00,0.0,WeatherDisplay:10.37,2013-08-23 22:19:00,
2013-08-23 23:24:00,58.2,54.3,29.90,ESE,113,0.0,0.0,87,0.00,CLR,OVC,0.00,0.0,WeatherDisplay:10.37,2013-08-23 22:24:00,
2013-08-23 23:29:00,58.2,54.3,29.91,ESE,113,0.0,0.0,87,0.00,CLR,OVC,0.00,0.0,WeatherDisplay:10.37,2013-08-23 22:29:00,
2013-08-23 23:34:00,58.0,54.2,29.90,ESE,113,0.0,0.0,87,0.00,CLR,OVC,0.00,0.0,WeatherDisplay:10.37,2013-08-23 22:34:00,
2013-08-23 23:39:00,57.8,54.3,29.90,ESE,113,0.0,0.0,88,0.00,CLR,OVC,0.00,0.0,WeatherDisplay:10.37,2013-08-23 22:39:00,
2013-08-23 23:44:00,57.8,54.3,29.90,ESE,113,0.0,0.0,88,0.00,CLR,OVC,0.00,0.0,WeatherDisplay:10.37,2013-08-23 22:44:00,
2013-08-23 23:49:00,57.7,54.5,29.90,ESE,113,0.0,0.0,89,0.00,CLR,OVC,0.00,0.0,WeatherDisplay:10.37,2013-08-23 22:49:00,
2013-08-23 23:54:00,57.7,54.5,29.90,ESE,113,0.0,0.0,89,0.00,CLR,OVC,0.00,0.0,WeatherDisplay:10.37,2013-08-23 22:54:00,
2013-08-23 23:59:00,57.7,54.5,29.91,ESE,113,0.0,0.0,89,0.00,CLR,OVC,0.00,0.0,WeatherDisplay:10.37,2013-08-23 22:59:00,